Track ONEWEB-0095 now! 10-day predictions ONEWEB-0095 is classified as:
1 45436U 20020N 21027.58334491 -.00007956 00000-0 -22498-1 0 9990 2 45436 87.8850 52.0609 0001694 92.9402 342.5103 13.11432035 44928